El Dorado, AR

8:16 PM CDT on April 25, 2017 (GMT -0500)
South Arkansas Regional At Goodwin

Weather History for KELD - December, 2012

Change the Weather History Date:

Monday, December 17, 2012

  Actual Average Record
Temperature  
Mean Temperature 52 °F 45 °F  
Max Temperature 64 °F 56 °F 80 °F (1924)
Min Temperature 40 °F 34 °F 15 °F (1972)
Degree Days  
Heating Degree Days 13 20  
Month to date heating degree days 158 314  
Since 1 July heating degree days 694 793  
Cooling Degree Days 0 0  
Month to date cooling degree days 12 0  
Year to date cooling degree days 2288 2126  
Growing Degree Days 2 (Base 50)    
Moisture  
Dew Point 49 °F    
Average Humidity 70    
Maximum Humidity 100    
Minimum Humidity 40    
Precipitation  
Precipitation 0.00 in 0.17 in 4.80 in (1931)
Month to date precipitation 1.89 3.06  
Year to date precipitation 40.24 50.80  
Snow  
Snow 0.00 in - - ()
Month to date snowfall 0.0  
Since 1 July snowfall 0.0  
Snow Depth 0.00 in    
Sea Level Pressure  
Sea Level Pressure 29.78 in    
Wind  
Wind Speed 6 mph (SW)    
Max Wind Speed 17 mph    
Max Gust Speed 23 mph    
Visibility 7 miles    
Events Fog    
T = Trace of Precipitation, MM = Missing Value Source: NWS Daily Summary

Daily Weather History Graph

Daily Weather History Graph

Search for Another Location

Airport or City:

Trip Planner

Search our weather history database for the weather conditions in past years. The results will help you decide how hot, cold, wet, or windy it might be!

Date:

Astronomy

Dec. 17, 2012 Rise Set
Actual Time 7:08 AM CST 5:06 PM CST
Civil Twilight 6:41 AM CST 5:33 PM CST
Nautical Twilight 6:10 AM CST 6:04 PM CST
Astronomical Twilight 5:40 AM CST 6:35 PM CST
Moon 10:30 AM CST (12/17) 10:14 PM CST (12/17)
Length of Visible Light 10h 52m
Length of Day
9h 57m
Waxing Crescent, 25% of the Moon is Illuminated
Dec 17
Waxing Crescent
Dec 19
First Quarter
Dec 28
Full
Jan 4
Last Quarter
Jan 11
New

Hourly Weather History & Observations

Time (CST) Temp. Windchill Dew Point Humidity Pressure Visibility Wind Dir Wind Speed Gust Speed Precip Events Conditions
12:53 AM 57.0 °F - 55.9 °F 96% 29.76 in 9.0 mi SSW 5.8 mph - N/A   Clear
1:51 AM 57.2 °F - 55.4 °F 94% 29.77 in 8.0 mi SW 5.8 mph - N/A   Partly Cloudy
1:53 AM 57.0 °F - 55.0 °F 93% 29.77 in 8.0 mi SW 6.9 mph - N/A   Scattered Clouds
2:04 AM 57.2 °F - 55.4 °F 94% 29.77 in 8.0 mi SSW 5.8 mph - N/A   Mostly Cloudy
2:49 AM 55.4 °F - 55.4 °F 100% 29.75 in 6.0 mi South 4.6 mph - N/A   Overcast
2:53 AM 55.9 °F - 55.0 °F 97% 29.75 in 6.0 mi South 5.8 mph - N/A   Overcast
3:53 AM 55.9 °F - 55.0 °F 97% 29.74 in 5.0 mi SSW 8.1 mph - N/A   Overcast
4:53 AM 55.0 °F - 54.0 °F 96% 29.72 in 5.0 mi South 4.6 mph - 0.01 in   Overcast
5:40 AM 53.6 °F - 53.6 °F 100% 29.73 in 6.0 mi South 6.9 mph - N/A   Scattered Clouds
5:53 AM 54.0 °F - 53.1 °F 97% 29.72 in 6.0 mi South 5.8 mph - N/A   Mostly Cloudy
6:53 AM 54.0 °F - 53.1 °F 97% 29.73 in 5.0 mi SSW 5.8 mph - N/A   Overcast
7:32 AM 53.6 °F - 53.6 °F 100% 29.74 in 1.8 mi SSW 4.6 mph - N/A   Overcast
7:43 AM 53.6 °F - 53.6 °F 100% 29.75 in 0.8 mi South 5.8 mph - N/A   Overcast
7:53 AM 53.1 °F - 53.1 °F 100% 29.75 in 0.2 mi South 5.8 mph - N/A Fog Fog
8:07 AM 53.6 °F - 53.6 °F 100% 29.75 in 0.8 mi SW 3.5 mph - N/A   Overcast
8:14 AM 53.6 °F - 53.6 °F 100% 29.76 in 2.0 mi SW 5.8 mph - N/A   Overcast
8:23 AM 53.6 °F - 53.6 °F 100% 29.76 in 4.0 mi SW 6.9 mph - N/A   Overcast
8:46 AM 55.4 °F - 53.6 °F 94% 29.76 in 6.0 mi WSW 10.4 mph - N/A   Scattered Clouds
8:53 AM 55.0 °F - 53.1 °F 93% 29.76 in 7.0 mi WSW 9.2 mph - N/A   Partly Cloudy
9:53 AM 57.9 °F - 48.9 °F 72% 29.78 in 10.0 mi West 13.8 mph 19.6 mph N/A   Clear
10:53 AM 61.0 °F - 45.0 °F 56% 29.79 in 10.0 mi West 10.4 mph 19.6 mph N/A   Clear
11:53 AM 62.1 °F - 41.0 °F 46% 29.78 in 10.0 mi Variable 6.9 mph 17.3 mph N/A   Clear
12:53 PM 62.1 °F - 39.9 °F 44% 29.76 in 10.0 mi West 13.8 mph 19.6 mph N/A   Clear
1:53 PM 64.0 °F - 39.9 °F 41% 29.76 in 10.0 mi WNW 11.5 mph - N/A   Clear
2:53 PM 62.1 °F - 42.1 °F 48% 29.78 in 10.0 mi West 10.4 mph - N/A   Clear
3:53 PM 61.0 °F - 37.9 °F 42% 29.79 in 10.0 mi NW 10.4 mph 18.4 mph N/A   Clear
6:53 PM 46.0 °F - 42.1 °F 86% 29.84 in 10.0 mi Calm Calm - N/A   Clear
7:53 PM 44.1 °F - 41.0 °F 89% 29.86 in 10.0 mi Calm Calm - N/A   Clear
8:53 PM 43.0 °F 41.3 °F 39.9 °F 89% 29.88 in 10.0 mi SW 3.5 mph - N/A   Clear
9:53 PM 46.9 °F - 39.0 °F 74% 29.90 in 10.0 mi WSW 3.5 mph - N/A   Clear
10:53 PM 41.0 °F - 39.0 °F 93% 29.91 in 10.0 mi Calm Calm - N/A   Clear
11:53 PM 39.9 °F - 37.0 °F 89% 29.90 in 10.0 mi Calm Calm - N/A   Clear